www.pogodaiklimat.ru
Время
(UTC), дата
03 8.12
06 8.12
09 8.12
12 8.12
15 8.12
18 8.12
21 8.12
00 9.12
03 9.12
06 9.12
09 9.12
12 9.12
15 9.12
18 9.12
21 9.12
00 10.12
03 10.12
06 10.12
09 10.12
12 10.12
15 10.12
18 10.12
21 10.12
00 11.12
03 11.12
06 11.12
09 11.12
12 11.12
15 11.12
18 11.12
21 11.12
00 12.12
03 12.12
06 12.12
09 12.12
12 12.12
15 12.12
18 12.12
21 12.12
00 13.12
03 13.12
06 13.12
09 13.12
12 13.12
15 13.12
18 13.12
21 13.12
00 14.12
03 14.12
06 14.12
09 14.12
12 14.12
15 14.12
18 14.12
21 14.12
00 15.12
Ветер
(напр.,м/с)
Видим. Явления Облачность Т
(С)
Тd
(С)
f
(%)
Тe
(С)
Тes
(С)
Комфортность P
(гПа)
Po
(гПа)
Тmin
(С)
Tmax
(С)
R
(мм)
R24
(мм)
S
(см)
ЮВ 5 2000 м слаб. морось {туман} 10/10 200 м
[St]
+4.2 +2.8 91 -1 -1 по сезону 1018.0 993.8 +1.5 0.4
В 4 200 м слаб. дождь {туман} н/о +3.5 +2.2 91 -1 -1 по сезону 1017.8 993.6
В 4 50 м слаб. морось {туман, дождь} туман н/о +4.3 +2.9 91 -0 -0 по сезону 1016.4 992.3
В 4 50 м туман н/о +4.1 +2.7 91 -0 -0 по сезону 1015.5 991.4
СВ 2 200 м слаб. морось {туман} туман н/о +4.1 +2.8 91 +1 +1 по сезону 1015.9 991.8 +4.5 3
СВ 3 200 м слаб. морось {туман} туман н/о +3.7 +2.4 91 -0 -0 по сезону 1016.4 992.2
СВ 2 200 м слаб. морось {туман} н/о +3.2 +1.9 91 0 0 по сезону 1016.5 992.3
С 2 200 м слаб. морось {туман} туман н/о +3.0 +1.7 91 -0 -0 по сезону 1017.2 992.9
С 1 200 м дождь {туман} туман н/о +2.6 +1.3 91 +1 +1 тепло 1017.9 993.6 +2.6 2
С 2 500 м туман {дождь} н/о +3.0 +1.7 91 -0 -0 по сезону 1019.2 994.9
СВ 2 4000 м дымка {туман} 10/10 200 м
[St]
+4.1 +2.8 91 +1 +1 по сезону 1019.4 995.2
штиль 0 4000 м дымка {туман} 10/10 300 м
[St]
+4.7 +3.3 91 +4 +4 тепло 1019.6 995.4
С 1 4000 м дымка 10/10 600 м
[Sc]
+4.0 +2.6 91 +2 +2 тепло 1020.5 996.3 +4.7 0.5
штиль 0 10 км 10/10 600 м
[Sc]
+4.0 +2.3 89 +3 +3 тепло 1021.1 996.8
ЮВ 2 10 км 10/10 600 м
[Sc]
+3.5 +1.8 89 +1 +1 тепло 1021.2 996.9
штиль 0 1000 м дымка 10/10 300 м
[St]
+3.1 +1.7 91 +2 +2 тепло 1021.5 997.1
ЮВ 2 1000 м дымка 10/10 200 м
[St]
+2.7 +1.4 91 -1 -1 по сезону 1021.5 997.1 +2.7
ЮВ 3 1000 м дымка 10/10 300 м
[St]
+1.7 +0.5 92 -3 -3 по сезону 1022.6 998.1 +1.3
ЮВ 3 4000 м дымка 10/10 300 м
[St]
+2.3 +0.4 87 -2 -2 по сезону 1022.0 997.5
ЮВ 2 10 км 10/10 300 м
[St]
+2.7 +0.8 87 -0 -0 по сезону 1021.6 997.2
В 2 500 м туман 10/10 200 м
[St]
+1.4 +0.1 91 -2 -2 по сезону 1022.1 997.5 +2.9
В 3 50 м туман 10/10 200 м
[St]
+0.2 -1.0 92 -5 -5 по сезону 1022.5 997.8
В 3 50 м туман 10/10
[]
-0.7 -1.8 92 -6 -6 по сезону 1022.7 997.9
В 3 500 м туман 10/10 200 м
[St]
-2.3 -3.4 92 -8 -8 по сезону 1022.5 997.6
ЮВ 1 10 км 9/6 600 м
[Sc Ac trans]
-2.6 -3.9 91 -5 -5 по сезону 1022.5 997.6 -2.7
В 2 4000 м дымка {туман} [диам. гололёда 1 мм] 8/3 300 м
[Sc Ac trans]
-2.9 -4.1 91 -7 -7 по сезону 1023.0 998.1 -3.3
В 2 500 м туман н/о -1.2 -2.3 92 -5 -5 по сезону 1022.2 997.4
В 2 200 м туман н/о -1.1 -1.1 100 -5 -5 прохладно 1022.1 997.3
В 1 200 м туман [диам. гололёда 1 мм] н/о -2.3 -2.3 100 -5 -5 по сезону 1022.5 997.6 -0.6
СВ 2 200 м туман [диам. гололёда 3 мм] н/о -3.2 -4.5 91 -7 -7 по сезону 1023.0 998.0
СВ 2 500 м переохл. туман [диам. сложн. отлож. 6 мм] н/о -3.3 -3.3 100 -8 -8 прохладно 1023.3 998.3
В 1 500 м переохл. туман [диам. сложн. отлож. 7 мм] н/о -3.5 -4.8 91 -6 -6 по сезону 1023.2 998.2
СВ 2 500 м переохл. туман [диам. сложн. отлож. 8 мм] н/о -4.1 -4.1 100 -9 -9 прохладно 1023.1 998.0 -4.1
В 1 500 м туман {снег} [диам. сложн. отлож. 9 мм] н/о -4.4 -5.8 90 -7 -7 по сезону 1023.7 998.6 -4.5
В 2 200 м туман [диам. сложн. отлож. 12 мм] н/о -3.0 -4.3 91 -7 -7 прохладно 1023.1 998.1
В 2 50 м переохл. туман [диам. сложн. отлож. 13 мм] н/о -2.2 -3.4 91 -6 -6 прохладно 1022.6 997.7
СВ 4 200 м переохл. туман [диам. сложн. отлож. 13 мм] н/о -3.7 -5.0 91 -10 -10 холодно 1022.6 997.6 -2.0
В 3 200 м переохл. туман [диам. сложн. отлож. 13 мм] н/о -3.8 -5.1 91 -9 -9 прохладно 1022.6 997.6
В 3 500 м переохл. туман [диам. сложн. отлож. 16 мм] н/о -4.5 -5.9 90 -10 -10 прохладно 1022.1 997.0
В 3 500 м переохл. туман [диам. сложн. отлож. 18 мм] н/о -2.6 -3.8 91 -8 -8 по сезону 1021.2 996.3
В 3 200 м переохл. туман [диам. сложн. отлож. 20 мм] н/о -1.9 -3.1 91 -7 -7 по сезону 1020.6 995.9 -4.5
В 5 200 м переохл. туман [диам. сложн. отлож. 21 мм] н/о -1.4 -1.4 100 -8 -8 по сезону 1020.6 995.9
В 5 200 м переохл. туман [диам. сложн. отлож. 22 мм] н/о -1.3 -1.3 100 -8 -8 прохладно 1020.3 995.6
В 7-10
{10}
200 м переохл. туман [диам. сложн. отлож. 24 мм] н/о -0.8 -0.8 100 -8 -8 холодно 1019.2 994.6
В 8-12
{13}
200 м переохл. туман [диам. сложн. отлож. 25 мм] н/о -1.3 -1.3 100 -9 -9 холодно 1019.7 995.0 -0.7
В 6-10
{13}
4000 м дымка {туман} [диам. сложн. отлож. 26 мм] 10/10 200 м
[Frnb]
-1.5 -2.7 92 -9 -9 прохладно 1019.0 994.3
В 5
{11}
4000 м слаб. ливневой дождь [диам. сложн. отлож. 27 мм] 10/10 300 м
[Cb cap]
-1.6 -2.8 92 -8 -8 прохладно 1018.6 993.9
В 5 4000 м дымка {ливн. осадки} [диам. сложн. отлож. 27 мм] 10/10 200 м
[St]
-1.5 -2.6 92 -8 -8 по сезону 1018.8 994.1
500 м переохл. туман [диам. сложн. отлож. 29 мм] н/о -0.9 -0.9 100 1018.2 993.6 -1.8 1
В 2 500 м слаб. переохл. морось (гололёд) {туман} [диам. сложн. отлож. 30 мм] н/о -0.2 -1.4 92 -4 -4 по сезону 1018.9 994.3
В 5 500 м слаб. морось {туман} [диам. сложн. отлож. 30 мм] н/о +0.2 -1.0 92 -6 -6 по сезону 1018.2 993.7
В 5 500 м слаб. морось {туман} туман н/о +3.0 +1.7 91 -2 -2 по сезону 1018.1 993.8
В 5 50 м туман н/о +3.3 +2.0 91 -2 -2 по сезону 1018.9 994.7 +3.4 0.8
ЮВ 7
{11}
<100 м туман н/о +2.6 +1.4 92 -4 -4 по сезону 1018.4 994.0
В 6 <100 м туман н/о +1.8 +0.6 92 -4 -4 по сезону 1018.7 994.3
В 5 <100 м туман н/о +0.7 -0.5 92 -5 -5 по сезону 1019.2 994.7
Местоположение метеостанции Элиста (Калмыкия, Россия): широта 46.37 долгота 44.33 высота над уровнем моря 153 м.
В архиве по умолчанию представлена погода в Элисте за последнюю неделю. Архивные данные за месяц целиком и за предыдущие месяцы, начиная с января 2011 года, Вы можете получить, выбрав интересующий диапазон дат из раскрывающегося списка и нажав кнопку "Найти!".
*Определитесь, кто Вы:
Внимание! Время в таблицах - всемирное. Для получения местного времени необходимо прибавить поправку, которая равна 3 ч.
Смотрите также архив погоды в соседних городах и на ближайших метеорологических станциях:
Партнеры нашего сайта:      
Пояснения к столбцам:
  • Ветер - указаны скорость ветра в м/с - средняя за 10 мин, порывы в срок и между сроками (в фигурных скобках) и направление, откуда дует ветер: С - северный,
  • СВ - северо-восточный, В - восточный, ЮВ - юго-восточный, Ю - южный, ЮЗ - юго-западный, З - западный, СЗ - северо-западный.
  • Видимость - горизонтальная дальность видимости в метрах или километрах. При видимости от 1 до 10 км при отсутствии осадков обычно наблюдается дымка, при ухудшении видимости до 1 км и менее - туман. В сухую погоду видимость может ухудшаться дымом, пылью или мглою.
  • Явления - указаны атмосферные явления, наблюдавшиеся в срок или в последний час перед сроком; фигурными скобками обозначены явления, наблюдавшиеся между сроками (за 1-3 часа до срока); квадратными скобками обозначены град или гололедные отложения с указанием их диаметра в мм.
  • Облачность - указаны через наклонную черту общая и нижняя облачность в баллах и высота нижней границы облаков в метрах; квадратными скобками обозначены формы облаков: Ci - перистые, Cs - перисто-слоистые, Cc - перисто-кучевые, Ac - высококучевые, As - высокослоистые, Sc - слоисто-кучевые, Ns - слоисто-дождевые, Cu - кучевые, Cb - кучево-дождевые. Подробнее классификацию облаков см. в Атласе облаков (PDF).
  • T - Температура воздуха - температура, измеренная на высоте 2 м над землей.
  • Td - Температура точки росы - температура, при понижении до которой содержащийся в воздухе водяной пар достигнет насыщения.
  • f - Относительная влажность воздуха - влажноcть воздуха, измеренная на высоте 2 м над землей.
  • Te - Эффективная температура - температура, которую ощущает одетый по сезону человек в тени. Характеристика душности погоды. При расчете учитывается влияние влажности воздуха и скорости ветра на теплоощущения человека.
  • Tes - Эффективная температура на солнце - температура, которую ощущает человек, с поправкой на солнечный нагрев. Характеристика знойности погоды. Зависит от высоты солнца над горизонтом, облачности и скорости ветра. Ночью, в пасмурную погоду, а также при ветре 12 м/с и более поправка равна нулю.
  • P - Атмосферное давление - приведенное к уровню моря атмосферное давление.
  • Po - Атмосферное давление - измеренное на уровне метеостанции атмосферное давление.
  • Tmin - Минимальная температура - минимум температуры воздуха на высоте 2 м над землей.
  • Tmax - Максимальная температура - максимум температуры воздуха на высоте 2 м над землей.
  • R - Количество осадков - Количество выпавших осадков за период времени, мм. При наведении курсора мыши на число - период времени, за который выпало указанное количество осадков.
  • R24 - Количество осадков - Количество выпавших осадков за 24 часа, мм.
  • S - Снежный покров - Высота снежного покрова, см. При наведении курсора мыши на число - состояние снежного покрова и степень покрытия местности в баллах.